When you browse on this site, cookies collect data to enhance your experience and personalize the content and advertising you see.
Visit our Privacy Policy to learn more. By continuing to use the site, you agree to this use of cookies and data.
  • Em Portugal
  • Lista de países
  • Para 7 dias
  • Temperatura da água
  • Mapas de satélite
  • Mapa do tempo
  • Widgets de tempo
  • user-avatar
    Iniciar Sessão

    Previsão horária em Barczyglow

    Hoje, 20 Junho, Quinta-feira

    Tempo Temperatura Precipitação Vento Pressão Humidade
    00:00 +22°C° 0 mm 1 m/s 748 mmHg 74%
    01:00 +21°C° 0 mm 2 m/s 748 mmHg 74%
    02:00 +21°C° 0 mm 2 m/s 748 mmHg 76%
    03:00 +21°C° 0 mm 1 m/s 748 mmHg 78%
    04:00 +21°C° 0 mm 1 m/s 748 mmHg 80%
    05:00 +21°C° 0.2 mm 2 m/s 748 mmHg 79%
    06:00 +23°C° 0.2 mm 2 m/s 748 mmHg 78%
    07:00 +24°C° 0.2 mm 2 m/s 748 mmHg 78%
    08:00 +26°C° 0 mm 3 m/s 748 mmHg 72%
    09:00 +27°C° 0 mm 3 m/s 748 mmHg 66%
    10:00 +28°C° 0 mm 3 m/s 748 mmHg 60%
    11:00 +29°C° 0 mm 3 m/s 748 mmHg 56%
    12:00 +30°C° 0 mm 3 m/s 748 mmHg 52%
    13:00 +31°C° 0 mm 3 m/s 748 mmHg 48%
    14:00 +31°C° 0 mm 3 m/s 748 mmHg 48%
    15:00 +31°C° 0 mm 2 m/s 748 mmHg 49%
    16:00 +31°C° 0 mm 2 m/s 747 mmHg 49%
    17:00 +30°C° 0.1 mm 2 m/s 748 mmHg 55%
    18:00 +28°C° 0.1 mm 3 m/s 748 mmHg 61%
    19:00 +26°C° 0.1 mm 3 m/s 748 mmHg 67%
    20:00 +24°C° 1.5 mm 3 m/s 749 mmHg 75%
    21:00 +21°C° 1.5 mm 2 m/s 749 mmHg 82%
    22:00 +19°C° 1.5 mm 2 m/s 749 mmHg 90%
    23:00 +20°C° 0 mm 1 m/s 750 mmHg 88%

    Amanhã, 21 Junho, Sexta-feira

    Tempo Temperatura Precipitação Vento Pressão Humidade
    00:00 +20°C° 0 mm 1 m/s 750 mmHg 87%
    01:00 +20°C° 0 mm 1 m/s 750 mmHg 86%
    02:00 +19°C° 0 mm 1 m/s 750 mmHg 87%
    03:00 +18°C° 0 mm 2 m/s 750 mmHg 88%
    04:00 +18°C° 0 mm 2 m/s 750 mmHg 89%
    05:00 +19°C° 0.1 mm 2 m/s 751 mmHg 88%
    06:00 +20°C° 0.1 mm 2 m/s 751 mmHg 87%
    07:00 +21°C° 0.1 mm 2 m/s 751 mmHg 86%
    08:00 +21°C° 0 mm 2 m/s 752 mmHg 83%
    09:00 +23°C° 0 mm 2 m/s 752 mmHg 79%
    10:00 +24°C° 0 mm 2 m/s 752 mmHg 76%
    11:00 +25°C° 0 mm 2 m/s 752 mmHg 70%
    12:00 +26°C° 0 mm 2 m/s 752 mmHg 65%
    13:00 +27°C° 0 mm 2 m/s 752 mmHg 59%
    14:00 +27°C° 0.8 mm 2 m/s 752 mmHg 62%
    15:00 +27°C° 0.8 mm 3 m/s 752 mmHg 65%
    16:00 +26°C° 0.8 mm 3 m/s 752 mmHg 68%
    17:00 +25°C° 0.7 mm 3 m/s 752 mmHg 73%
    18:00 +24°C° 0.7 mm 3 m/s 752 mmHg 78%
    19:00 +24°C° 0.7 mm 2 m/s 752 mmHg 82%
    20:00 +21°C° 0 mm 2 m/s 753 mmHg 86%
    21:00 +20°C° 0 mm 3 m/s 753 mmHg 89%
    22:00 +19°C° 0 mm 3 m/s 754 mmHg 92%
    23:00 +18°C° 0 mm 3 m/s 754 mmHg 94%

    Depois de amanhã, 22 Junho, Sábado

    Tempo Temperatura Precipitação Vento Pressão Humidade
    00:00 +18°C° 0 mm 4 m/s 754 mmHg 95%
    01:00 +17°C° 0 mm 4 m/s 754 mmHg 96%
    02:00 +17°C° 0 mm 4 m/s 755 mmHg 96%
    03:00 +15°C° 0 mm 4 m/s 755 mmHg 96%
    04:00 +15°C° 0 mm 4 m/s 755 mmHg 95%
    05:00 +15°C° 0 mm 4 m/s 756 mmHg 90%
    06:00 +17°C° 0 mm 4 m/s 756 mmHg 85%
    07:00 +18°C° 0 mm 4 m/s 756 mmHg 80%
    08:00 +19°C° 0 mm 4 m/s 756 mmHg 75%
    09:00 +20°C° 0 mm 4 m/s 757 mmHg 69%
    10:00 +22°C° 0 mm 4 m/s 757 mmHg 64%
    11:00 +22°C° 0 mm 4 m/s 757 mmHg 62%
    12:00 +23°C° 0 mm 5 m/s 756 mmHg 59%
    13:00 +23°C° 0 mm 5 m/s 756 mmHg 57%
    14:00 +23°C° 0 mm 5 m/s 756 mmHg 58%
    15:00 +23°C° 0 mm 5 m/s 756 mmHg 60%
    16:00 +23°C° 0 mm 5 m/s 756 mmHg 61%
    17:00 +22°C° 0 mm 5 m/s 756 mmHg 66%
    18:00 +21°C° 0 mm 5 m/s 756 mmHg 70%
    19:00 +19°C° 0 mm 5 m/s 756 mmHg 75%
    20:00 +17°C° 0 mm 5 m/s 756 mmHg 73%
    21:00 +16°C° 0 mm 5 m/s 757 mmHg 72%
    22:00 +15°C° 0 mm 5 m/s 757 mmHg 70%
    23:00 +14°C° 0 mm 5 m/s 757 mmHg 73%

    23 Junho, Domingo

    Tempo Temperatura Precipitação Vento Pressão Humidade
    00:00 +13°C° 0 mm 4 m/s 757 mmHg 75%
    01:00 +12°C° 0 mm 4 m/s 757 mmHg 78%
    02:00 +12°C° 0 mm 4 m/s 757 mmHg 78%
    03:00 +12°C° 0 mm 4 m/s 757 mmHg 78%
    04:00 +11°C° 0 mm 4 m/s 757 mmHg 78%
    05:00 +12°C° 0 mm 4 m/s 757 mmHg 77%
    06:00 +12°C° 0 mm 4 m/s 757 mmHg 75%
    07:00 +13°C° 0 mm 4 m/s 758 mmHg 74%
    08:00 +15°C° 0 mm 4 m/s 758 mmHg 72%
    09:00 +17°C° 0 mm 4 m/s 758 mmHg 70%
    10:00 +19°C° 0 mm 4 m/s 758 mmHg 69%
    11:00 +20°C° 0 mm 4 m/s 758 mmHg 66%
    12:00 +21°C° 0 mm 4 m/s 758 mmHg 64%
    13:00 +22°C° 0 mm 5 m/s 758 mmHg 62%
    14:00 +22°C° 0 mm 5 m/s 758 mmHg 62%
    15:00 +22°C° 0 mm 5 m/s 758 mmHg 62%
    16:00 +22°C° 0 mm 5 m/s 757 mmHg 62%
    17:00 +21°C° 0 mm 4 m/s 758 mmHg 67%
    18:00 +20°C° 0 mm 4 m/s 758 mmHg 72%
    19:00 +19°C° 0 mm 4 m/s 758 mmHg 78%
    20:00 +18°C° 0 mm 4 m/s 758 mmHg 82%
    21:00 +17°C° 0 mm 3 m/s 759 mmHg 86%
    22:00 +14°C° 0 mm 3 m/s 759 mmHg 90%
    23:00 +14°C° 0 mm 3 m/s 759 mmHg 91%

    24 Junho, Segunda-feira

    Tempo Temperatura Precipitação Vento Pressão Humidade
    00:00 +13°C° 0 mm 3 m/s 759 mmHg 91%
    01:00 +13°C° 0 mm 3 m/s 759 mmHg 91%
    02:00 +12°C° 0 mm 3 m/s 759 mmHg 91%
    03:00 +12°C° 0 mm 3 m/s 759 mmHg 91%
    04:00 +11°C° 0 mm 3 m/s 759 mmHg 91%
    05:00 +13°C° 0 mm 3 m/s 759 mmHg 85%
    06:00 +14°C° 0 mm 3 m/s 760 mmHg 80%
    07:00 +17°C° 0 mm 3 m/s 760 mmHg 75%
    08:00 +19°C° 0 mm 3 m/s 760 mmHg 70%
    09:00 +21°C° 0 mm 3 m/s 760 mmHg 65%
    10:00 +22°C° 0 mm 3 m/s 760 mmHg 60%
    11:00 +24°C° 0 mm 3 m/s 760 mmHg 58%
    12:00 +25°C° 0 mm 3 m/s 760 mmHg 56%
    13:00 +26°C° 0 mm 3 m/s 760 mmHg 53%
    14:00 +26°C° 0 mm 3 m/s 760 mmHg 53%
    15:00 +26°C° 0 mm 3 m/s 759 mmHg 52%
    16:00 +27°C° 0 mm 3 m/s 759 mmHg 51%
    17:00 +25°C° 0 mm 3 m/s 759 mmHg 59%
    18:00 +24°C° 0 mm 3 m/s 759 mmHg 66%
    19:00 +22°C° 0 mm 3 m/s 760 mmHg 74%
    20:00 +20°C° 0 mm 3 m/s 760 mmHg 79%
    21:00 +19°C° 0 mm 3 m/s 760 mmHg 83%
    22:00 +17°C° 0 mm 3 m/s 761 mmHg 88%
    23:00 +17°C° 0 mm 3 m/s 761 mmHg 89%

    25 Junho, Terça-feira

    Tempo Temperatura Precipitação Vento Pressão Humidade
    00:00 +16°C° 0 mm 3 m/s 761 mmHg 91%
    01:00 +15°C° 0 mm 2 m/s 761 mmHg 92%
    02:00 +15°C° 0 mm 2 m/s 761 mmHg 93%
    03:00 +15°C° 0 mm 2 m/s 761 mmHg 94%
    04:00 +15°C° 0 mm 2 m/s 761 mmHg 95%
    05:00 +16°C° 0 mm 2 m/s 761 mmHg 88%
    06:00 +18°C° 0 mm 2 m/s 762 mmHg 82%
    07:00 +19°C° 0 mm 2 m/s 762 mmHg 76%
    08:00 +21°C° 0 mm 3 m/s 762 mmHg 71%
    09:00 +22°C° 0 mm 3 m/s 762 mmHg 66%
    10:00 +25°C° 0 mm 3 m/s 762 mmHg 60%
    11:00 +25°C° 0 mm 3 m/s 762 mmHg 56%
    12:00 +26°C° 0 mm 3 m/s 762 mmHg 51%
    13:00 +27°C° 0 mm 3 m/s 762 mmHg 47%
    14:00 +27°C° 0 mm 3 m/s 761 mmHg 47%
    15:00 +27°C° 0 mm 3 m/s 761 mmHg 47%
    16:00 +27°C° 0 mm 3 m/s 761 mmHg 48%
    17:00 +25°C° 0 mm 3 m/s 761 mmHg 55%
    18:00 +24°C° 0 mm 3 m/s 761 mmHg 62%
    19:00 +22°C° 0 mm 3 m/s 761 mmHg 70%
    20:00 +20°C° 0 mm 3 m/s 762 mmHg 74%
    21:00 +19°C° 0 mm 3 m/s 762 mmHg 78%
    22:00 +17°C° 0 mm 3 m/s 762 mmHg 81%
    23:00 +17°C° 0 mm 3 m/s 762 mmHg 84%
    Mostrar mais